Elkins, WV

3:35 PM EDT on September 26, 2017 (GMT -0400)
Elkins-Randolph County

Weather History for KEKN - May, 2013

Change the Weather History Date:

Saturday, May 4, 2013

  Actual Average Record
Temperature  
Mean Temperature 55 °F 55 °F  
Max Temperature 70 °F 68 °F 88 °F (1905)
Min Temperature 40 °F 42 °F 21 °F (1986)
Degree Days  
Heating Degree Days 10 10  
Month to date heating degree days 33 43  
Since 1 July heating degree days 5591 5606  
Cooling Degree Days 0 0  
Month to date cooling degree days 0 0  
Year to date cooling degree days 3 3  
Growing Degree Days 4 (Base 50)    
Moisture  
Dew Point 32 °F    
Average Humidity 39    
Maximum Humidity 59    
Minimum Humidity 19    
Precipitation  
Precipitation 0.00 in 0.15 in 0.97 in (1996)
Month to date precipitation 0.00 0.58  
Year to date precipitation 12.58 14.67  
Snow  
Snow 0.00 in - - ()
Month to date snowfall 0.0  
Since 1 September snowfall 77.5  
Snow Depth 0.00 in    
Sea Level Pressure  
Sea Level Pressure 30.15 in    
Wind  
Wind Speed 6 mph (ESE)    
Max Wind Speed 20 mph    
Max Gust Speed 29 mph    
Visibility 10 miles    
Events      
T = Trace of Precipitation, MM = Missing Value Source: NWS Daily Summary

Daily Weather History Graph

Daily Weather History Graph

Search for Another Location

Airport or City:

Trip Planner

Search our weather history database for the weather conditions in past years. The results will help you decide how hot, cold, wet, or windy it might be!

Date:

Astronomy

May. 04, 2013 Rise Set
Actual Time 6:17 AM EDT 8:15 PM EDT
Civil Twilight 5:48 AM EDT 8:44 PM EDT
Nautical Twilight 5:13 AM EDT 9:19 PM EDT
Astronomical Twilight 4:35 AM EDT 9:57 PM EDT
Moon 3:12 AM EDT (5/4) 3:13 PM EDT (5/4)
Length of Visible Light 14h 55m
Length of Day
13h 57m
Waning Crescent, 27% of the Moon is Illuminated
May 4
Waning Crescent
May 9
New
May 18
First Quarter
May 25
Full
May 31
Last Quarter

Hourly Weather History & Observations

Time (EDT) Temp. Dew Point Humidity Pressure Visibility Wind Dir Wind Speed Gust Speed Precip Events Conditions
12:51 AM 52.0 °F 37.0 °F 57% 30.22 in 10.0 mi Variable 5.8 mph - N/A   Clear
1:51 AM 50.0 °F 34.0 °F 54% 30.20 in 10.0 mi SE 5.8 mph 16.1 mph N/A   Clear
2:51 AM 46.9 °F 32.0 °F 56% 30.17 in 10.0 mi Calm Calm - N/A   Clear
3:51 AM 46.9 °F 28.9 °F 50% 30.16 in 10.0 mi Calm Calm - N/A   Clear
4:51 AM 43.0 °F 28.0 °F 56% 30.17 in 10.0 mi Calm Calm - N/A   Clear
5:51 AM 42.1 °F 28.0 °F 58% 30.17 in 10.0 mi Calm Calm - N/A   Clear
6:51 AM 42.1 °F 27.0 °F 55% 30.18 in 10.0 mi Calm Calm - N/A   Clear
7:51 AM 51.1 °F 28.0 °F 41% 30.17 in 10.0 mi Calm Calm - N/A   Clear
8:51 AM 55.9 °F 30.9 °F 39% 30.17 in 10.0 mi West 3.5 mph - N/A   Clear
9:51 AM 62.1 °F 30.9 °F 31% 30.15 in 10.0 mi Variable 3.5 mph 18.4 mph N/A   Clear
10:51 AM 63.0 °F 26.1 °F 25% 30.16 in 10.0 mi SSE 17.3 mph 23.0 mph N/A   Clear
11:51 AM 64.9 °F 24.1 °F 21% 30.16 in 10.0 mi SSE 16.1 mph 24.2 mph N/A   Clear
12:51 PM 64.9 °F 21.9 °F 19% 30.15 in 10.0 mi SE 10.4 mph 19.6 mph N/A   Clear
1:51 PM 68.0 °F 24.1 °F 19% 30.13 in 10.0 mi East 9.2 mph - N/A   Clear
2:51 PM 66.9 °F 28.9 °F 24% 30.12 in 10.0 mi Variable 6.9 mph 16.1 mph N/A   Clear
3:51 PM 66.0 °F 34.0 °F 30% 30.10 in 10.0 mi ESE 6.9 mph 17.3 mph N/A   Clear
4:51 PM 64.9 °F 37.0 °F 36% 30.11 in 10.0 mi East 9.2 mph 16.1 mph N/A   Clear
5:51 PM 63.0 °F 37.9 °F 40% 30.12 in 10.0 mi East 6.9 mph - N/A   Clear
6:51 PM 62.1 °F 39.9 °F 44% 30.12 in 10.0 mi East 4.6 mph - N/A   Scattered Clouds
7:51 PM 59.0 °F 39.9 °F 49% 30.13 in 10.0 mi Variable 5.8 mph - N/A   Partly Cloudy
8:51 PM 57.9 °F 39.0 °F 49% 30.14 in 10.0 mi Variable 5.8 mph - N/A   Clear
9:51 PM 55.9 °F 37.9 °F 51% 30.15 in 10.0 mi Variable 3.5 mph - N/A   Clear
10:51 PM 55.0 °F 37.9 °F 53% 30.16 in 10.0 mi Variable 4.6 mph - N/A   Clear
11:51 PM 54.0 °F 37.9 °F 55% 30.15 in 10.0 mi SE 9.2 mph - N/A   Clear